Penn Yan, NY

5:53 AM EST on December 14, 2017 (GMT -0500)
Penn Yan

Weather History for KPEO - September, 2013

Change the Weather History Date:

Friday, September 6, 2013

  Actual Average (KITH) Record (KITH)
Temperature  
Mean Temperature 58 °F -  
Max Temperature 71 °F 74 °F 89 °F (1998)
Min Temperature 46 °F 52 °F 38 °F (1938)
Degree Days  
Heating Degree Days 7    
Growing Degree Days 8 (Base 50)    
Moisture  
Dew Point 45 °F    
Average Humidity 68    
Maximum Humidity 90    
Minimum Humidity 38    
Precipitation  
Precipitation 0.00 in - - ()
Sea Level Pressure  
Sea Level Pressure 30.23 in    
Wind  
Wind Speed 3 mph (SSW)    
Max Wind Speed 6 mph    
Max Gust Speed -    
Visibility 10 miles    
Events      
Averages and records for this station are not official NWS values.
T = Trace of Precipitation, MM = Missing Value Source: NWS Daily Summary

Daily Weather History Graph

Daily Weather History Graph

Search for Another Location

Airport or City:

Trip Planner

Search our weather history database for the weather conditions in past years. The results will help you decide how hot, cold, wet, or windy it might be!

Date:

Astronomy

Sep. 06, 2013 Rise Set
Actual Time 6:38 AM EDT 7:33 PM EDT
Civil Twilight 6:09 AM EDT 8:02 PM EDT
Nautical Twilight 5:35 AM EDT 8:36 PM EDT
Astronomical Twilight 4:59 AM EDT 9:11 PM EDT
Moon 7:51 AM EDT (9/6) 7:53 PM EDT (9/6)
Length of Visible Light 13h 52m
Length of Day
12h 54m
New Moon, 1% of the Moon is Illuminated
Sep 6
New Moon
Sep 12
First Quarter
Sep 19
Full
Sep 26
Last Quarter
Oct 4
New

Hourly Weather History & Observations

Time (EDT) Temp. Dew Point Humidity Pressure Visibility Wind Dir Wind Speed Gust Speed Precip Events Conditions
12:53 AM 48.0 °F 42.1 °F 80% 30.24 in 10.0 mi SW 4.6 mph - N/A   Clear
1:53 AM 50.0 °F 43.0 °F 77% 30.24 in 10.0 mi Calm Calm - N/A   Clear
2:53 AM 50.0 °F 44.1 °F 80% 30.25 in 10.0 mi SSW 4.6 mph - N/A   Clear
3:53 AM 48.9 °F 44.1 °F 83% 30.25 in 10.0 mi Variable 3.5 mph - N/A   Clear
4:53 AM 48.0 °F 43.0 °F 83% 30.26 in 10.0 mi SSW 3.5 mph - N/A   Clear
5:53 AM 46.9 °F 43.0 °F 86% 30.27 in 10.0 mi Calm Calm - N/A   Clear
6:53 AM 46.9 °F 44.1 °F 90% 30.28 in 10.0 mi SSW 3.5 mph - N/A   Clear
7:53 AM 48.9 °F 45.0 °F 86% 30.30 in 10.0 mi SSW 5.8 mph - N/A   Clear
8:53 AM 53.1 °F 45.0 °F 74% 30.30 in 10.0 mi Variable 4.6 mph - N/A   Clear
9:53 AM 57.9 °F 46.0 °F 65% 30.30 in 10.0 mi Calm Calm - N/A   Clear
10:53 AM 61.0 °F 41.0 °F 48% 30.30 in 10.0 mi Calm Calm - N/A   Clear
11:53 AM 64.0 °F 41.0 °F 43% 30.29 in 10.0 mi North 3.5 mph - N/A   Clear
12:53 PM 64.0 °F 41.0 °F 43% 30.27 in 10.0 mi South 4.6 mph - N/A   Clear
1:53 PM 66.0 °F 41.0 °F 40% 30.24 in 10.0 mi Calm Calm - N/A   Clear
2:53 PM 68.0 °F 42.1 °F 39% 30.22 in 10.0 mi NW 3.5 mph - N/A   Clear
3:53 PM 70.0 °F 43.0 °F 38% 30.20 in 10.0 mi Calm Calm - N/A   Clear
4:53 PM 69.1 °F 46.0 °F 44% 30.18 in 10.0 mi Variable 3.5 mph - N/A   Clear
5:53 PM 66.9 °F 46.0 °F 47% 30.18 in 10.0 mi Calm Calm - N/A   Clear
6:53 PM 62.1 °F 50.0 °F 65% 30.17 in 10.0 mi Calm Calm - N/A   Clear
7:53 PM 54.0 °F 50.0 °F 86% 30.17 in 10.0 mi Calm Calm - N/A   Clear
8:53 PM 53.1 °F 48.0 °F 83% 30.15 in 10.0 mi SSE 3.5 mph - N/A   Clear
9:53 PM 55.0 °F 48.9 °F 80% 30.14 in 10.0 mi South 3.5 mph - N/A   Clear
10:53 PM 55.9 °F 51.1 °F 84% 30.14 in 10.0 mi Calm Calm - N/A   Clear
11:53 PM 55.0 °F 51.1 °F 86% 30.13 in 10.0 mi SW 3.5 mph - N/A   Clear